www.pogodaiklimat.ru
Время
(UTC), дата
16 9.01
17 9.01
18 9.01
19 9.01
20 9.01
21 9.01
22 9.01
23 9.01
00 10.01
01 10.01
02 10.01
03 10.01
04 10.01
05 10.01
06 10.01
07 10.01
08 10.01
09 10.01
10 10.01
11 10.01
12 10.01
13 10.01
14 10.01
15 10.01
16 10.01
17 10.01
18 10.01
19 10.01
20 10.01
21 10.01
22 10.01
23 10.01
00 11.01
01 11.01
02 11.01
03 11.01
04 11.01
05 11.01
06 11.01
07 11.01
08 11.01
09 11.01
10 11.01
11 11.01
12 11.01
13 11.01
14 11.01
15 11.01
16 11.01
17 11.01
18 11.01
19 11.01
20 11.01
21 11.01
22 11.01
23 11.01
00 12.01
01 12.01
02 12.01
03 12.01
04 12.01
05 12.01
06 12.01
07 12.01
08 12.01
09 12.01
10 12.01
11 12.01
12 12.01
13 12.01
14 12.01
15 12.01
16 12.01
17 12.01
18 12.01
19 12.01
20 12.01
21 12.01
22 12.01
23 12.01
00 13.01
01 13.01
02 13.01
03 13.01
04 13.01
05 13.01
06 13.01
07 13.01
08 13.01
09 13.01
10 13.01
11 13.01
12 13.01
13 13.01
14 13.01
15 13.01
16 13.01
17 13.01
18 13.01
19 13.01
20 13.01
21 13.01
22 13.01
23 13.01
00 14.01
01 14.01
02 14.01
03 14.01
04 14.01
05 14.01
06 14.01
07 14.01
08 14.01
09 14.01
10 14.01
11 14.01
12 14.01
13 14.01
14 14.01
15 14.01
16 14.01
17 14.01
18 14.01
19 14.01
20 14.01
21 14.01
22 14.01
23 14.01
00 15.01
01 15.01
02 15.01
03 15.01
04 15.01
05 15.01
06 15.01
07 15.01
08 15.01
09 15.01
10 15.01
11 15.01
12 15.01
13 15.01
14 15.01
15 15.01
16 15.01
17 15.01
18 15.01
19 15.01
20 15.01
21 15.01
22 15.01
23 15.01
00 16.01
01 16.01
02 16.01
03 16.01
04 16.01
05 16.01
06 16.01
07 16.01
08 16.01
09 16.01
10 16.01
11 16.01
12 16.01
13 16.01
14 16.01
15 16.01
Ветер
(напр.,м/с)
Видим. Явления Облачность Т
(С)
Тd
(С)
f
(%)
Тe
(С)
Тes
(С)
Комфортность P
(гПа)
Po
(гПа)
Тmin
(С)
Tmax
(С)
R
(мм)
R24
(мм)
S
(см)
В 1-2
{5}
35 км 8/8 1080 м
[Sc]
+1.6 -3.1 71 0 0 по сезону 1024.3 1011.2
В 1-2
{2}
30 км 8/8 1170 м
[Sc]
+0.4 -3.6 74 -1 -1 тепло 1024.3 1011.1
В 1 30 км 4/4 1140 м
[Sc]
-0.6 -3.9 78 -3 -3 по сезону 1024.7 1011.5 -1.1 +3.3
штиль 0
{1}
30 км 9/9 1140 м
[Sc]
-1.3 -3.3 86 -2 -2 по сезону 1025.3 1012.0
В 1-1
{2}
35 км 9/9 1020 м
[Sc]
-1.5 -3.3 88 -4 -4 тепло 1025.5 1012.2
штиль 0-1
{2}
35 км 9/9 900 м
[Sc]
-1.5 -3.4 87 -3 -3 по сезону 1025.6 1012.3
В 1-1
{4}
35 км 8/8 840 м
[Sc]
-1.5 -3.4 87 -4 -4 по сезону 1025.8 1012.5
штиль 0-1
{2}
35 км 9/9 1470 м
[Sc]
-2.0 -3.5 89 -3 -3 тепло 1025.8 1012.5
СВ 1-1
{4}
35 км 9/9 1500 м
[Sc]
-1.9 -3.1 91 -4 -4 по сезону 1025.7 1012.4
СВ 1-1
{1}
35 км 9/9 1470 м
[Sc]
-1.6 -2.9 91 -4 -4 по сезону 1025.5 1012.2
СВ 1-1
{2}
35 км 9/9 1500 м
[Sc]
-2.1 -3.3 91 -4 -4 тепло 1025.8 1012.5
В 1-1
{2}
35 км 6/6 1500 м
[Sc]
-2.7 -3.5 94 -5 -5 по сезону 1025.7 1012.3
С 1-1
{2}
35 км 1/1 1470 м
[Sc]
-3.2 -4.0 94 -6 -6 по сезону 1025.7 1012.3
СВ 1-2
{4}
30 км 8/8 1500 м
[Sc]
-3.7 -4.3 96 -6 -6 тепло 1025.7 1012.3
СВ 1 25 км 9/9 1500 м
[Sc]
-3.5 -4.2 95 -6 -6 по сезону 1025.7 1012.3 -3.8 +0.2
В 1-1
{2}
30 км 8/8 1500 м
[Sc]
-3.4 -4.2 94 -6 -6 по сезону 1026.0 1012.6
С 1-1
{2}
30 км 8/8 1500 м
[Sc]
-2.6 -3.6 93 -5 -5 тепло 1026.0 1012.6
В 1 30 км 6/6 1470 м
[Sc]
-2.2 -3.2 93 -5 -4 по сезону 1026.2 1012.9
СВ 2-2
{3}
30 км 3/3 1500 м
[Sc]
+0.1 -3.6 76 -3 -2 по сезону 1026.4 1013.2
С 1-2
{3}
30 км 1/1 1500 м
[Sc]
+1.7 -4.3 64 0 +3 тепло 1025.9 1012.7
ЮЗ 1-2
{3}
35 км 1/1 600 м
[Cu Sc]
+2.8 -3.5 63 +2 +4 по сезону 1025.3 1012.2
С 1-3
{3}
45 км 1/1 900 м
[Cu Sc]
+3.2 -4.3 58 +2 +4 тепло 1024.7 1011.6
С 1-2
{3}
45 км 1/1 900 м
[Cu hum]
+3.2 -4.8 56 +2 +3 тепло 1024.6 1011.5
СВ 1-2
{3}
45 км 1/1 900 м
[Cu hum]
+3.2 -4.6 57 +2 +2 по сезону 1025.0 1011.9
СВ 1-1
{2}
45 км 3/3 900 м
[Cu Sc]
0.0 -4.3 73 -2 -2 по сезону 1025.1 1011.9
СВ 1-1
{2}
45 км 1/1 960 м
[Cu Sc]
-1.5 -4.4 81 -4 -4 тепло 1025.3 1012.0
СВ 1 40 км 1/1 1200 м
[Sc]
-2.7 -4.6 87 -5 -5 прохладно 1025.5 1012.1 -3.6 +3.9
С 1-2
{2}
40 км ясно -3.1 -4.5 90 -5 -5 по сезону 1025.6 1012.2
С 1-2
{2}
30 км 1/1 1200 м
[Sc]
-3.7 -4.7 93 -6 -6 тепло 1025.6 1012.2
СВ 1-1
{2}
30 км 1/1 1200 м
[Sc]
-4.3 -5.0 95 -7 -7 прохладно 1025.7 1012.3
штиль 0-1
{1}
25 км ясно -4.9 -5.5 96 -6 -6 по сезону 1025.7 1012.2
С 2-2
{2}
23 км ясно -5.2 -6.0 94 -10 -10 по сезону 1025.6 1012.1
С 1-1
{2}
20 км ясно -5.8 -6.6 94 -8 -8 прохладно 1025.3 1011.8
штиль 0-1
{1}
20 км ясно -6.3 -7.2 93 -7 -7 по сезону 1024.9 1011.4
СВ 1-2
{2}
20 км 1/1 900 м
[Sc]
-6.5 -7.5 93 -9 -9 по сезону 1025.6 1012.0
штиль 0-1
{2}
20 км 1/1 900 м
[Sc]
-6.9 -7.9 93 -8 -8 прохладно 1025.2 1011.6
СВ 1-1
{1}
15 км 1/1 150 м
[St]
-7.3 -8.3 93 -10 -10 по сезону 1025.1 1011.5
ЮВ 1-2
{2}
17 км 1/1 150 м
[St]
-7.5 -8.8 90 -10 -10 по сезону 1025.0 1011.4
ЮЗ 2 18 км 3/3 50 м
[St]
-7.1 -8.1 93 -12 -12 очень
холодно
1024.9 1011.3 -7.8 -2.6
Ю 2-4
{4}
15 км 3/1 90 м
[St Ci fib]
-7.5 -8.7 91 -12 -12 прохладно 1024.7 1011.1
ЮЗ 2-2
{4}
15 км 4/0
[Ac trans Ci sp]
-7.1 -8.5 90 -12 -11 по сезону 1024.9 1011.3
Ю 2 20 км 6/1 150 м
[St Ac trans Ci fib]
-4.2 -6.0 87 -8 -8 холодно 1024.8 1011.4
Ю 2-3
{4}
20 км 8/0
[Ac trans Ci]
-2.4 -4.5 85 -6 -5 по сезону 1025.0 1011.7
Ю 3-5
{5}
20 км 9/1 240 м
[Sc Ac trans Ci sp]
-0.9 -3.8 81 -6 -5 по сезону 1024.6 1011.3
Ю 4 22 км 9/3 360 м
[Cu Sc Ac trans Ci sp]
+0.4 -3.2 77 -5 -4 прохладно 1023.8 1010.6
Ю 4-6
{7}
28 км 9/1 1200 м
[Sc Ac As Ci sp]
+1.2 -4.0 68 -4 -3 по сезону 1022.6 1009.5
Ю 4-6
{8}
30 км 8/1 600 м
[Cu hum Ac As Ci fib]
+1.6 -3.6 68 -3 -3 тепло 1022.1 1009.0
Ю 4-6
{8}
40 км 8/0
[Ac cuf Ci fib]
+1.3 -3.9 68 -4 -4 прохладно 1021.9 1008.8
Ю 4-6
{7}
30 км 8/0
[As op Ci sp]
+0.9 -3.8 71 -4 -4 по сезону 1021.4 1008.3
Ю 6-8
{8}
25 км 9/9 870 м
[Sc]
+0.7 -3.7 72 -5 -5 по сезону 1021.1 1008.0
Ю 5 30 км 9/9 840 м
[Sc]
+0.6 -3.7 73 -5 -5 прохладно 1020.7 1007.6 -7.7 +1.8
Ю 4-6
{8}
30 км 8/8 840 м
[Sc]
+0.4 -3.7 74 -5 -5 по сезону 1020.2 1007.1
Ю 5-7
{8}
25 км 9/9 700 м
[Sc]
+0.6 -3.8 72 -5 -5 тепло 1019.4 1006.3
Ю 7-9
{9}
25 км 9/9 720 м
[Sc]
+0.7 -3.9 71 -6 -6 прохладно 1019.3 1006.2
Ю 6-8
{10}
25 км 9/9 750 м
[Sc]
+0.6 -3.6 73 -6 -6 по сезону 1018.7 1005.6
Ю 5-8
{9}
25 км 9/9 750 м
[Sc]
+0.7 -3.3 75 -5 -5 тепло 1017.9 1004.8
Ю 6-8
{10}
25 км 10/9 660 м
[Sc]
+0.6 -3.3 75 -6 -6 прохладно 1017.2 1004.1
Ю 7-10
{11}
22 км 10/9 600 м
[Sc]
+0.6 -3.1 76 -6 -6 по сезону 1016.0 1002.9
Ю 7-10
{11}
20 км 10/9 570 м
[Sc]
+0.8 -2.7 77 -6 -6 тепло 1015.6 1002.5
Ю 7-10
{11}
20 км в посл. час снег 10/9 540 м
[Sc]
+0.7 -2.4 80 -6 -6 по сезону 1014.8 1001.7 0.0
Ю 7-11
{11}
6000 м слаб. снег 10/9 500 м
[Sc]
+0.5 -1.3 88 -7 -7 по сезону 1013.4 1000.4
Ю 7-11
{11}
2500 м слаб. снег 10/4 210 м
[Frnb As op]
+0.1 -0.4 96 -7 -7 тепло 1012.4 999.4
Ю 7 1500 м снег ?/? +0.1 -0.2 98 -7 -7 прохладно 1011.5 998.5 0.0 +0.8 3 3
Ю 6-10
{11}
1500 м снег ?/? +0.1 +0.1 100 -7 -7 по сезону 1010.9 997.9
Ю 7-9
{11}
1500 м снег ?/? +0.2 +0.2 100 -7 -7 тепло 1010.4 997.4
Ю 8 8000 м слаб. дождь 10/10 180 м
[Sc]
+1.1 +0.5 96 -6 -6 прохладно 1010.1 997.1 6
Ю 8-11
{11}
25 км слаб. дождь 10/10 180 м
[Sc]
+1.6 +0.6 93 -6 -6 по сезону 1009.8 996.9
Ю 8-12
{12}
20 км слаб. дождь 10/10 240 м
[Sc]
+2.4 +0.9 90 -4 -4 тепло 1009.3 996.4
Ю 9 25 км слаб. дождь 10/10 240 м
[Sc]
+2.8 +1.1 89 -4 -4 прохладно 1008.7 995.8 0.2 3
Ю 7-9
{12}
30 км слаб. дождь 10/10 240 м
[Cu Sc]
+3.1 +1.3 88 -3 -3 по сезону 1008.3 995.5
Ю 7-11
{11}
15 км дождь 10/10 240 м
[Sc]
+3.4 +1.6 88 -3 -3 тепло 1008.4 995.6
Ю 6 16 км в посл. час дождь 10/9 300 м
[Sc]
+3.7 +2.0 89 -2 -2 по сезону 1009.0 996.2 0.0
ЮЗ 5-6
{8}
10 км дождь 10/9 240 м
[Frnb]
+3.4 +2.7 95 -2 -2 по сезону 1009.9 997.0
З 6-10
{10}
20 км в посл. час дождь 9/9 240 м
[Cu Sc]
+3.8 +2.8 93 -2 -2 тепло 1011.0 998.2
З 6 40 км {дождь} 1/1 600 м
[Cu Sc]
+3.4 +0.8 83 -2 -2 по сезону 1012.4 999.5 0.0 +4.2 0.5 1
СЗ 3-6
{10}
50 км 4/4 700 м
[Cu Sc]
+3.3 -0.1 78 -1 -1 тепло 1013.1 1000.2
З 4-6
{8}
50 км 1/1 700 м
[Cu Sc]
+2.7 -0.4 80 -2 -2 тепло 1014.0 1001.1
З 4-5
{10}
50 км 1/1 700 м
[Cu Sc]
+2.6 -0.7 79 -2 -2 по сезону 1014.9 1001.9
З 3-7
{7}
50 км 1/1 750 м
[Cu Sc]
+1.9 -0.9 82 -2 -2 по сезону 1016.0 1003.0
ЮЗ 2-3
{6}
40 км 1/1 750 м
[Sc]
-1.4 -2.9 90 -5 -5 тепло 1016.9 1003.7
ЮЗ 3-4
{10}
40 км 1/1 660 м
[Sc]
-2.2 -2.6 97 -8 -8 прохладно 1017.7 1004.5 1
Ю 3-4
{5}
40 км 4/4 660 м
[Sc]
-0.7 -1.3 96 -6 -6 по сезону 1017.9 1004.7
Ю 3-4
{4}
40 км 1/1 1200 м
[Sc]
-1.8 -2.4 96 -7 -7 тепло 1018.1 1004.9
Ю 3-3
{5}
35 км 1/1 1200 м
[Sc]
-2.4 -2.9 96 -8 -8 прохладно 1018.2 1005.0
В 1-2
{3}
35 км 1/1 1350 м
[Sc]
-0.1 -1.6 90 -2 -2 тепло 1018.4 1005.3
ЮВ 2-2
{2}
40 км 1/1 720 м
[Cu Sc]
-0.3 -1.9 89 -4 -4 тепло 1018.5 1005.4
ЮВ 2 35 км 5/3 600 м
[Sc Ci fib]
+0.2 -1.8 86 -3 -3 по сезону 1018.5 1005.4 -3.3 +3.5 1
Ю 3-4
{5}
35 км в посл. час снег 8/4 180 м
[Cu Sc Ci fib]
-0.1 -2.0 87 -5 -5 по сезону 1018.6 1005.5
Ю 4-6
{7}
35 км 9/9 700 м
[Cu Sc]
+0.1 -1.7 88 -5 -5 тепло 1018.9 1005.8
Ю 4 35 км {снег} 9/9 700 м
[Cu Sc]
+1.3 -1.1 84 -4 -4 по сезону 1019.1 1006.0 0.0
Ю 4-7
{8}
35 км 5/4 700 м
[Cu Sc Ac trans Ci fib]
+2.6 -1.2 76 -2 -1 по сезону 1019.2 1006.2
ЮЗ 7-9
{9}
35 км 9/8 700 м
[Cu Sc]
+2.9 -0.6 78 -3 -3 тепло 1018.7 1005.7
ЮЗ 6 35 км {снег} 9/8 720 м
[Cu Sc]
+4.0 -0.9 70 -1 -1 по сезону 1017.8 1004.9 1
ЮЗ 7-9
{9}
40 км 8/8 720 м
[Cu Sc Ci fib]
+4.6 -0.9 67 -1 -1 по сезону 1017.0 1004.1
ЮЗ 8-14
{14}
45 км 6/6 750 м
[Cu Sc Ci fib]
+4.8 -1.8 62 -1 -1 тепло 1016.6 1003.7
ЮЗ 7-10
{14}
45 км 8/6 750 м
[Cu Sc Ac trans Ci fib]
+4.0 -1.4 68 -2 -2 по сезону 1016.2 1003.3
ЮЗ 6-7
{9}
40 км 8/3 750 м
[Cu Sc Ac und Ci]
+2.5 -0.9 78 -3 -3 по сезону 1015.7 1002.7
ЮЗ 7-9
{9}
35 км 9/1 750 м
[Cu Sc Ac und Cs]
+1.8 -1.4 79 -5 -5 по сезону 1015.2 1002.2
Ю 6 40 км 9/4 750 м
[Cu Sc Ac trans]
+2.2 -1.4 77 -4 -4 по сезону 1014.9 1001.9 -0.5 +4.9 0
Ю 5-8
{9}
40 км 9/4 750 м
[Sc Ac As]
+2.0 -1.0 80 -3 -3 по сезону 1014.6 1001.6
Ю 4-7
{7}
30 км 10/5 800 м
[Sc Ac As]
+2.3 -0.6 81 -3 -3 тепло 1014.4 1001.4
ЮЗ 5 30 км 10/8 720 м
[Sc Ac As]
+2.8 -0.2 81 -2 -2 по сезону 1014.2 1001.3
ЮЗ 4-6
{7}
30 км 10/8 720 м
[Sc Ac As]
+3.0 -0.2 79 -2 -2 по сезону 1014.4 1001.5
ЮЗ 6-7
{7}
30 км 10/6 720 м
[Sc Ac As]
+3.5 -0.5 75 -2 -2 тепло 1014.5 1001.6
ЮЗ 3 30 км 10/9 600 м
[Sc]
+3.4 -0.7 74 -0 -0 по сезону 1014.6 1001.7 0
З 5-7
{7}
30 км в посл. час морось 10/9 600 м
[Sc]
+3.3 -0.1 78 -2 -2 тепло 1015.1 1002.2
З 5-6
{7}
30 км в посл. час морось 10/9 600 м
[Sc]
+3.2 +0.4 82 -2 -2 тепло 1015.6 1002.7
СЗ 5 30 км {морось} 10/8 720 м
[Sc Ac As]
+3.4 -1.2 72 -2 -2 по сезону 1016.3 1003.4 0.0
СЗ 5-8
{10}
30 км 10/1 720 м
[Sc Ac As]
+2.9 -2.9 66 -2 -2 тепло 1016.8 1003.8
СЗ 3-5
{7}
30 км 10/1 720 м
[Sc Ac As]
+2.3 -3.3 66 -2 -2 тепло 1017.2 1004.2
СЗ 2 30 км {морось} 10/1 600 м
[Sc Ac As]
+1.9 -3.1 69 -1 -1 по сезону 1017.5 1004.5 +1.8 +3.7 0
З 2-4
{6}
40 км 8/1 450 м
[Cu hum Ac As]
+1.3 -3.2 72 -2 -2 тепло 1018.4 1005.3
З 2-4
{8}
50 км осадки на расстоянии 8/1 480 м
[Cu hum Ac As]
+1.1 -2.9 75 -2 -2 тепло 1019.0 1005.9
С 2 50 км осадки на расстоянии 9/1 600 м
[Cu hum Ac As]
+1.8 -3.0 70 -1 -1 по сезону 1019.9 1006.8
С 2-4
{7}
50 км 9/6 750 м
[Cu Sc Ac As]
+2.2 -3.6 65 -1 -0 тепло 1020.7 1007.6
С 2-4
{4}
50 км 9/8 700 м
[Cu Sc Ac As Cs]
+2.4 -4.1 62 -0 0 тепло 1021.1 1008.0
СВ 2 60 км 8/3 700 м
[Cu Sc Ac As Ci sp]
+2.5 -3.2 66 -0 +1 по сезону 1020.5 1007.5 0
В 2-2
{4}
50 км 8/3 700 м
[Cu Sc Ac As Ci sp]
+2.5 -3.3 66 -0 +1 тепло 1020.0 1007.0
СВ 2-4
{4}
50 км 8/3 700 м
[Cu Sc Ac As Ci sp]
+2.1 -2.8 70 -1 -0 тепло 1019.9 1006.8
СВ 3 50 км 8/3 700 м
[Cu Sc Ac As Ci sp]
+1.7 -2.6 73 -2 -2 по сезону 1020.1 1007.0
СВ 1-2
{4}
40 км 8/1 700 м
[Sc Ac As Ci sp]
+0.6 -2.7 79 -1 -1 по сезону 1020.4 1007.3
СВ 2-2
{2}
35 км 9/1 700 м
[Sc Ac As Ci sp]
-0.2 -3.0 81 -4 -4 тепло 1020.5 1007.3
СВ 2 35 км 9/1 700 м
[Sc Ac trans Ci sp]
-0.2 -2.9 82 -4 -4 по сезону 1020.1 1006.9 -0.4 +2.7 0
СВ 2-3
{4}
40 км 9/1 1260 м
[Sc Ac trans Ci sp]
-0.3 -3.1 81 -4 -4 по сезону 1020.1 1006.9
СВ 2-3
{3}
40 км 9/1 1200 м
[Sc Ac trans Ci fib]
-0.2 -3.4 79 -4 -4 тепло 1020.0 1006.8
СВ 3-4
{4}
45 км 4/1 1200 м
[Sc Ci fib]
-1.2 -4.3 79 -6 -6 прохладно 1020.3 1007.1
СВ 3-4
{4}
50 км 8/1 1200 м
[Sc Ci fib]
-1.4 -4.5 79 -6 -6 по сезону 1020.1 1006.9
СВ 2-3
{4}
50 км 9/1 1200 м
[Sc Cs]
-2.6 -4.8 85 -7 -7 по сезону 1020.4 1007.1
С 3 50 км 9/1 1200 м
[Sc Cs]
-3.4 -5.4 86 -9 -9 холодно 1020.5 1007.2 0
С 2-2
{3}
50 км 6/0
[Cs]
-1.4 -4.7 78 -5 -5 по сезону 1020.5 1007.3
С 2-3
{3}
50 км 9/4 1260 м
[Sc Ci fib]
-1.9 -4.8 81 -6 -6 тепло 1021.1 1007.8
С 2-3
{3}
50 км 6/1 1320 м
[Sc Ci fib]
-1.4 -4.8 78 -5 -5 по сезону 1021.4 1008.2
С 2-3
{3}
50 км 9/9 1380 м
[Sc]
-1.0 -4.3 78 -5 -5 по сезону 1022.0 1008.8
С 3-3
{3}
50 км 9/9 1350 м
[Sc]
-0.5 -3.6 80 -5 -5 тепло 1022.6 1009.4
С 3 35 км осадки на расстоянии 9/9 1000 м
[Sc]
-0.3 -3.3 80 -5 -5 по сезону 1023.0 1009.8 -3.5 +0.2 0
С 2-3
{5}
35 км осадки на расстоянии 6/5 1410 м
[Sc Ci fib]
-0.3 -3.5 79 -4 -4 по сезону 1023.7 1010.5
С 3-5
{5}
40 км 4/3 1440 м
[Sc Ci fib]
-0.7 -4.2 77 -5 -5 тепло 1024.4 1011.2
С 4 40 км 5/5 1500 м
[Sc Ci fib]
+0.2 -4.0 73 -5 -5 прохладно 1025.0 1011.8
С 4-6
{6}
35 км 8/8 1500 м
[Sc Ci fib]
+0.5 -3.8 73 -5 -4 по сезону 1025.9 1012.7
С 4-6
{7}
40 км осадки на расстоянии 8/8 600 м
[Cu Sc Ci fib]
+1.1 -3.0 74 -4 -4 тепло 1026.4 1013.2
С 5 35 км осадки на расстоянии 9/8 450 м
[Cu Sc Ac trans Ci fib]
+1.6 -2.1 76 -4 -4 прохладно 1026.4 1013.2 0
С 4-7
{8}
35 км 9/9 450 м
[Cu Sc]
+1.7 -2.1 76 -3 -3 по сезону 1026.3 1013.1
С 4-6
{6}
35 км 10/10 480 м
[Cu Sc]
+1.9 -2.1 75 -3 -3 тепло 1026.5 1013.4
С 3 35 км 10/10 630 м
[Sc]
+2.0 -2.1 74 -2 -2 по сезону 1027.0 1013.9
С 3-5
{7}
35 км слаб. снег 10/10 630 м
[Sc]
+1.5 -2.6 74 -3 -3 по сезону 1027.7 1014.5
С 3-4
{5}
40 км в посл. час снег 9/9 600 м
[Sc]
+1.1 -2.4 77 -3 -3 тепло 1028.1 1014.9
СЗ 1 40 км {снег} 9/9 960 м
[Sc]
+0.7 -2.5 79 -1 -1 по сезону 1028.5 1015.3 -1.0 +2.2 0.0 0
З 2-2
{3}
35 км 10/10 900 м
[Sc]
+0.9 -2.6 77 -2 -2 по сезону 1028.7 1015.5
З 3-4
{4}
28 км 10/10 840 м
[Sc]
+1.0 -3.2 74 -3 -3 тепло 1028.7 1015.5
СЗ 2-3
{5}
28 км в посл. час снег 10/10 840 м
[Sc]
+0.9 -3.1 75 -2 -2 по сезону 1028.9 1015.7 0.0
СЗ 2-3
{4}
25 км в посл. час снег 10/10 750 м
[Sc]
+0.8 -2.9 76 -3 -3 по сезону 1029.2 1016.0
СЗ 2-3
{4}
25 км в посл. час снег 10/10 750 м
[Sc]
+0.7 -3.1 76 -3 -3 тепло 1029.3 1016.1
ЮВ 1 23 км в посл. час снег 10/10 750 м
[Sc]
+0.8 -3.5 73 -1 -1 по сезону 1029.3 1016.1 0.0 0
СЗ 2-4
{5}
23 км 10/10 750 м
[Sc]
+0.6 -3.7 73 -3 -3 по сезону 1029.1 1015.9
СЗ 3-4
{5}
25 км 10/10 750 м
[Sc]
+0.5 -4.3 70 -4 -4 тепло 1029.0 1015.8
СЗ 4-6
{6}
25 км в посл. час снег 9/9 750 м
[Sc]
+0.2 -5.4 66 -5 -5 по сезону 1028.9 1015.6 0.0
С 2-3
{6}
30 км в посл. час снег 9/9 750 м
[Sc]
-0.1 -5.5 67 -3 -3 по сезону 1029.2 1015.9
С 2-4
{4}
30 км в посл. час снег 10/10 700 м
[Sc]
-0.4 -5.3 69 -4 -4 тепло 1029.2 1015.9
В 1 30 км {снег} 10/10 600 м
[Sc]
-0.4 -5.2 70 -2 -2 по сезону 1029.0 1015.7 -0.6 +1.0 0.0 0
СЗ 1-3
{3}
30 км 10/10 870 м
[Sc]
-0.4 -5.6 68 -2 -2 тепло 1029.0 1015.7
С 3-5
{6}
45 км в посл. час снег 10/10 930 м
[Sc]
-0.5 -6.8 62 -5 -5 тепло 1029.0 1015.7
СЗ 2 45 км {снег} 10/10 1000 м
[Sc]
-0.4 -6.9 61 -4 -4 по сезону 1028.9 1015.6 0.0
СЗ 1-2
{3}
45 км 10/10 750 м
[Sc]
-0.3 -7.5 58 -2 -2 по сезону 1028.7 1015.4
Ю 1-2
{2}
45 км 9/9 750 м
[Sc]
-0.1 -7.4 58 -2 -1 тепло 1028.0 1014.7
ЮЗ 1 45 км {снег} 9/9 750 м
[Cu Sc]
-0.2 -6.2 64 -2 -1 по сезону 1027.4 1014.1 0
Ю 2-4
{5}
40 км 9/9 1050 м
[Sc]
-0.1 -6.2 63 -3 -3 по сезону 1026.4 1013.2
Ю 3-4
{4}
50 км 9/9 840 м
[Cu Sc]
0.0 -6.8 60 -4 -4 тепло 1025.7 1012.5
Ю 3-6
{6}
55 км 9/9 1020 м
[Sc]
-0.2 -6.8 61 -4 -4 по сезону 1025.3 1012.1
Местоположение метеостанции Франкфурт-на-Майне (Германия): широта 50.05 долгота 8.60 высота над уровнем моря 112 м.
В архиве по умолчанию представлена погода во Франкфурте-на-Майне за последнюю неделю. Архивные данные за месяц целиком и за предыдущие месяцы, начиная с января 2011 года, Вы можете получить, выбрав интересующий диапазон дат из раскрывающегося списка и нажав кнопку "Найти!".
*Определитесь, кто Вы:
Внимание! Время в таблицах - всемирное. Для получения местного времени необходимо прибавить поправку, которая равна 1 ч.
Смотрите также архив погоды в соседних городах и на ближайших метеорологических станциях:
Партнеры нашего сайта:      
Пояснения к столбцам:
  • Ветер - указаны скорость ветра в м/с - средняя за 10 мин, порывы в срок и между сроками (в фигурных скобках) и направление, откуда дует ветер: С - северный,
  • СВ - северо-восточный, В - восточный, ЮВ - юго-восточный, Ю - южный, ЮЗ - юго-западный, З - западный, СЗ - северо-западный.
  • Видимость - горизонтальная дальность видимости в метрах или километрах. При видимости от 1 до 10 км при отсутствии осадков обычно наблюдается дымка, при ухудшении видимости до 1 км и менее - туман. В сухую погоду видимость может ухудшаться дымом, пылью или мглою.
  • Явления - указаны атмосферные явления, наблюдавшиеся в срок или в последний час перед сроком; фигурными скобками обозначены явления, наблюдавшиеся между сроками (за 1-3 часа до срока); квадратными скобками обозначены град или гололедные отложения с указанием их диаметра в мм.
  • Облачность - указаны через наклонную черту общая и нижняя облачность в баллах и высота нижней границы облаков в метрах; квадратными скобками обозначены формы облаков: Ci - перистые, Cs - перисто-слоистые, Cc - перисто-кучевые, Ac - высококучевые, As - высокослоистые, Sc - слоисто-кучевые, Ns - слоисто-дождевые, Cu - кучевые, Cb - кучево-дождевые. Подробнее классификацию облаков см. в Атласе облаков (PDF).
  • T - Температура воздуха - температура, измеренная на высоте 2 м над землей.
  • Td - Температура точки росы - температура, при понижении до которой содержащийся в воздухе водяной пар достигнет насыщения.
  • f - Относительная влажность воздуха - влажноcть воздуха, измеренная на высоте 2 м над землей.
  • Te - Эффективная температура - температура, которую ощущает одетый по сезону человек в тени. Характеристика душности погоды. При расчете учитывается влияние влажности воздуха и скорости ветра на теплоощущения человека.
  • Tes - Эффективная температура на солнце - температура, которую ощущает человек, с поправкой на солнечный нагрев. Характеристика знойности погоды. Зависит от высоты солнца над горизонтом, облачности и скорости ветра. Ночью, в пасмурную погоду, а также при ветре 12 м/с и более поправка равна нулю.
  • P - Атмосферное давление - приведенное к уровню моря атмосферное давление.
  • Po - Атмосферное давление - измеренное на уровне метеостанции атмосферное давление.
  • Tmin - Минимальная температура - минимум температуры воздуха на высоте 2 м над землей.
  • Tmax - Максимальная температура - максимум температуры воздуха на высоте 2 м над землей.
  • R - Количество осадков - Количество выпавших осадков за период времени, мм. При наведении курсора мыши на число - период времени, за который выпало указанное количество осадков.
  • R24 - Количество осадков - Количество выпавших осадков за 24 часа, мм.
  • S - Снежный покров - Высота снежного покрова, см. При наведении курсора мыши на число - состояние снежного покрова и степень покрытия местности в баллах.